NY5V Weather Reports


Display with metric or nautical units.
time (UTC)temp
F
wind
direction
speed
MPH
gust
MPH
rain 1hr
in
rain 24hr
in
rain mn
in
humidity
%
barometer
mb
20260901231537 96 72 2.0 2.0 0.00 0.00 0.00 45 1013.3
20260901230533 97 73 0.0 0.0 0.00 0.00 0.00 45 1013.5
20260901225529 97 89 1.0 1.0 0.00 0.00 0.00 45 1013.4
20260901224525 97 356 3.0 3.0 0.00 0.00 0.00 44 1013.5
20260901223522 97 111 3.0 4.0 0.00 0.00 0.00 45 1013.2
20260901222519 97 68 1.0 1.0 0.00 0.00 0.00 44 1013.4
20260901221516 98 53 1.0 2.0 0.00 0.00 0.00 45 1013.3
20260901220511 98 25 3.0 6.0 0.00 0.00 0.00 43 1013.5
20260901215508 97 74 1.0 1.0 0.00 0.00 0.00 45 1013.5
20260901214507 96 49 1.0 1.0 0.00 0.00 0.00 46 1013.6
20260901213502 95 92 1.0 1.0 0.00 0.00 0.00 47 1014.1
20260901212456 97 49 1.0 1.0 0.00 0.00 0.00 48 1013.8
20260901211454 97 51 0.0 1.0 0.00 0.00 0.00 47 1014.0
20260901210452 96 57 0.0 0.0 0.00 0.00 0.00 50 1014.3
20260901205448 97 64 0.0 2.0 0.00 0.00 0.00 48 1014.1
20260901204445 96 53 1.0 1.0 0.00 0.00 0.00 49 1014.5
20260901203445 95 46 0.0 0.0 0.00 0.00 0.00 51 1014.7
20260901202441 96 75 2.0 3.0 0.00 0.00 0.00 50 1014.6
20260901201437 95 59 2.0 2.0 0.00 0.00 0.00 51 1014.9
20260901200432 96 64 0.0 1.0 0.00 0.00 0.00 49 1015.1
20260901195430 95 61 0.0 0.0 0.00 0.00 0.00 51 1014.8
20260901194426 94 108 1.0 2.0 0.00 0.00 0.00 52 1015.2
20260901193421 96 119 4.0 4.0 0.00 0.00 0.00 51 1015.3
20260901192417 97 105 1.0 3.0 0.00 0.00 0.00 49 1015.1
20260901191414 96 52 0.0 0.0 0.00 0.00 0.00 50 1015.2
20260901190410 97 98 1.0 2.0 0.00 0.00 0.00 48 1015.1
20260901185408 97 55 1.0 2.0 0.00 0.00 0.00 49 1015.3
20260901184404 93 69 1.0 2.0 0.00 0.00 0.00 54 1015.8
20260901183404 94 100 2.0 3.0 0.00 0.00 0.00 53 1015.7
20260901182401 96 91 2.0 2.0 0.00 0.00 0.00 51 1015.9
20260901181356 97 115 3.0 4.0 0.00 0.00 0.00 50 1016.1
20260901180354 97 37 1.0 1.0 0.00 0.00 0.00 51 1016.4
20260901175354 93 56 0.0 0.0 0.00 0.00 0.00 55 1016.5
20260901174350 95 87 0.0 0.0 0.00 0.00 0.00 52 1016.8
20260901173347 93 63 1.0 1.0 0.00 0.00 0.00 56 1016.9
20260901172342 92 106 2.0 2.0 0.00 0.00 0.00 57 1016.9
20260901171340 94 52 0.0 1.0 0.00 0.00 0.00 56 1017.3
20260901170339 94 73 0.0 0.0 0.00 0.00 0.00 55 1017.4
20260901165339 95 36 1.0 1.0 0.00 0.00 0.00 55 1017.6
20260901164337 95 86 2.0 2.0 0.00 0.00 0.00 56 1017.5
20260901163332 93 85 2.0 2.0 0.00 0.00 0.00 58 1017.7
20260901162332 92 76 1.0 2.0 0.00 0.00 0.00 58 1017.9
20260901161332 93 57 2.0 2.0 0.00 0.00 0.00 57 1017.8
20260901160330 93 60 1.0 1.0 0.00 0.00 0.00 60 1017.9
20260901155329 92 25 1.0 1.0 0.00 0.00 0.00 60 1018.0
20260901154324 91 63 1.0 1.0 0.00 0.00 0.00 61 1018.1
20260901153319 91 58 1.0 2.0 0.00 0.00 0.00 62 1018.1
20260901152318 89 32 1.0 1.0 0.00 0.00 0.00 65 1018.0
20260901151314 92 36 0.0 0.0 0.00 0.00 0.00 62 1017.9
20260901150311 89 47 0.0 0.0 0.00 0.00 0.00 66 1017.9
20260901145309 89 47 0.0 0.0 0.00 0.00 0.00 68 1018.0
20260901144306 88 57 1.0 1.0 0.00 0.00 0.00 70 1018.0
20260901143304 87 49 0.0 0.0 0.00 0.00 0.00 71 1018.0
20260901142305 86 29 0.0 1.0 0.00 0.00 0.00 72 1018.1
20260901141300 86 54 1.0 1.0 0.00 0.00 0.00 74 1018.2
20260901140257 85 49 1.0 1.0 0.00 0.00 0.00 74 1018.3
20260901135253 84 46 0.0 0.0 0.00 0.00 0.00 77 1018.3
20260901134248 83 44 0.0 0.0 0.00 0.00 0.00 78 1018.4
20260901133248 82 34 1.0 1.0 0.00 0.00 0.00 80 1018.2
20260901132248 82 45 1.0 1.0 0.00 0.00 0.00 81 1018.1
20260901131247 80 44 0.0 0.0 0.00 0.00 0.00 83 1018.3
20260901130242 79 44 0.0 0.0 0.00 0.00 0.00 86 1018.4
20260901125241 77 47 0.0 0.0 0.00 0.00 0.00 88 1018.1
20260901124236 77 46 0.0 0.0 0.00 0.00 0.00 89 1017.9
20260901123237 76 46 0.0 0.0 0.00 0.00 0.00 90 1017.9
20260901122236 76 46 0.0 0.0 0.00 0.00 0.00 90 1017.6
20260901121231 76 46 0.0 0.0 0.00 0.00 0.00 89 1017.5
20260901120226 76 46 0.0 0.0 0.00 0.00 0.00 89 1017.3
20260901115223 76 44 0.0 0.0 0.00 0.00 0.00 89 1017.2
20260901114220 76 46 0.0 0.0 0.00 0.00 0.00 89 1017.2
20260901113220 76 46 0.0 0.0 0.00 0.00 0.00 88 1017.0
20260901112220 76 46 0.0 0.0 0.00 0.00 0.00 89 1017.2
20260901111219 76 46 0.0 0.0 0.00 0.00 0.00 88 1017.1
20260901110214 77 46 0.0 0.0 0.00 0.00 0.00 88 1017.0
20260901105211 77 46 0.0 0.0 0.00 0.00 0.00 87 1017.1
20260901104208 77 46 0.0 0.0 0.00 0.00 0.00 87 1017.1
20260901103203 77 46 0.0 0.0 0.00 0.00 0.00 86 1017.1
20260901102202 77 46 0.0 0.0 0.00 0.00 0.00 85 1016.9
20260901101158 78 46 0.0 0.0 0.00 0.00 0.00 85 1016.8
20260901100153 78 46 0.0 0.0 0.00 0.00 0.00 84 1016.8
20260901095149 78 46 0.0 0.0 0.00 0.00 0.00 84 1016.8
20260901094144 78 46 0.0 0.0 0.00 0.00 0.00 83 1016.8
20260901093144 79 46 0.0 0.0 0.00 0.00 0.00 82 1016.8
20260901092142 79 44 0.0 0.0 0.00 0.00 0.00 80 1016.9
20260901091137 79 45 0.0 0.0 0.00 0.00 0.00 80 1016.8
20260901090134 80 46 0.0 0.0 0.00 0.00 0.00 79 1017.1
20260901085131 80 47 0.0 0.0 0.00 0.00 0.00 79 1017.0
20260901084129 80 45 0.0 0.0 0.00 0.00 0.00 77 1016.9
20260901083127 81 45 0.0 0.0 0.00 0.00 0.00 76 1017.0
20260901082123 81 43 0.0 0.0 0.00 0.00 0.00 75 1017.1
20260901081119 82 46 0.0 0.0 0.00 0.00 0.00 74 1017.0
20260901080118 82 46 0.0 0.0 0.00 0.00 0.00 74 1017.1
20260901075113 82 45 0.0 0.0 0.00 0.00 0.00 73 1017.0
20260901074108 82 47 0.0 0.0 0.00 0.00 0.00 72 1016.8
20260901073105 82 47 0.0 1.0 0.00 0.00 0.00 71 1016.7
20260901072101 83 49 0.0 0.0 0.00 0.00 0.00 70 1016.9
20260901071100 83 37 0.0 0.0 0.00 0.00 0.00 70 1016.8
20260901070056 83 35 0.0 1.0 0.00 0.00 0.00 69 1016.7
20260901065056 83 42 0.0 0.0 0.00 0.00 0.00 68 1017.0
20260901064055 84 47 0.0 0.0 0.00 0.00 0.00 67 1016.8
20260901063054 84 35 1.0 1.0 0.00 0.00 0.00 66 1016.8
20260901062051 84 55 0.0 0.0 0.00 0.00 0.00 66 1016.6
20260901061048 84 22 1.0 1.0 0.00 0.00 0.00 65 1016.5
20260901060043 84 40 0.0 0.0 0.00 0.00 0.00 65 1016.4
20260901055042 84 52 0.0 0.0 0.00 0.00 0.00 65 1016.3
20260901054039 84 55 0.0 0.0 0.00 0.00 0.00 66 1016.5
20260901053037 84 52 0.0 0.0 0.00 0.00 0.00 65 1016.2
20260901052037 85 42 1.0 1.0 0.00 0.00 0.00 64 1016.0
20260901051037 85 54 0.0 1.0 0.00 0.00 0.00 64 1016.0
20260901050033 85 50 0.0 0.0 0.00 0.00 0.00 64 1016.1
20260901045028 85 42 0.0 1.0 0.00 0.00 0.00 63 1015.9
20260901044026 86 52 0.0 0.0 0.00 0.00 0.00 62 1016.0
20260901043022 86 52 0.0 0.0 0.00 0.00 0.00 61 1016.0
20260901042017 86 52 0.0 0.0 0.00 0.00 0.00 61 1016.0
20260901041013 86 50 0.0 0.0 0.00 0.00 0.00 60 1015.9
20260901040013 87 47 0.0 0.0 0.00 0.00 0.00 60 1015.9
20260901035010 87 55 0.0 0.0 0.00 0.00 0.00 59 1015.8
20260901034010 87 43 1.0 2.0 0.00 0.00 0.00 59 1015.9
20260901033009 87 42 0.0 0.0 0.00 0.00 0.00 58 1015.6
20260901032009 88 54 0.0 0.0 0.00 0.00 0.00 58 1015.6
20260901031006 88 71 1.0 1.0 0.00 0.00 0.00 57 1015.8
20260901030006 89 50 0.0 0.0 0.00 0.00 0.00 57 1015.6
20260901025006 89 54 0.0 0.0 0.00 0.00 0.00 56 1015.5
20260901024006 89 52 0.0 0.0 0.00 0.00 0.00 56 1015.4
20260901023001 89 50 0.0 0.0 0.00 0.00 0.00 55 1015.4
20260901021957 89 50 0.0 0.0 0.00 0.00 0.00 55 1015.2
20260901020954 90 48 0.0 0.0 0.00 0.00 0.00 55 1015.1
20260901015954 90 41 0.0 0.0 0.00 0.00 0.00 54 1015.2
20260901014951 90 49 0.0 0.0 0.00 0.00 0.00 53 1014.9
20260901013948 91 60 1.0 1.0 0.00 0.00 0.00 52 1014.9
20260901012945 91 54 0.0 0.0 0.00 0.00 0.00 53 1014.7
20260901011940 92 52 0.0 0.0 0.00 0.00 0.00 51 1014.8
20260901010940 92 48 0.0 0.0 0.00 0.00 0.00 50 1014.8
20260901005940 93 50 0.0 0.0 0.00 0.00 0.00 49 1014.7
20260901004936 93 34 1.0 1.0 0.00 0.00 0.00 48 1014.7
20260901003937 93 51 0.0 0.0 0.00 0.00 0.00 47 1014.5
20260901002936 94 54 2.0 2.0 0.00 0.00 0.00 46 1014.5
20260901001936 95 50 0.0 0.0 0.00 0.00 0.00 45 1014.5
20260901000933 96 32 0.0 1.0 0.00 0.00 0.00 44 1014.3
20260831235932 96 29 0.0 1.0 0.00 0.00 0.00 43 1014.3
20260831234929 97 59 1.0 1.0 0.00 0.00 0.00 42 1014.2
20260831233924 97 63 0.0 0.0 0.00 0.00 0.00 41 1014.1
20260831232921 98 60 1.0 2.0 0.00 0.00 0.00 41 1014.1